[Iaude] MPEC K35: 2020 JT2 [a=2.05,e=0.42,i=4.8,H=23.1]

mpec at marsden.cfa.harvard.edu mpec at marsden.cfa.harvard.edu
Mon May 18 02:29:40 EDT 2020


M.P.E.C. 2020-K35                                  Issued 2020 May 18, 06:28 UT

     The Minor Planet Electronic Circulars contain information on unusual
         minor planets and routine data on comets.  They are published
    on behalf of Division F of the International Astronomical Union by the
          Minor Planet Center, Smithsonian Astrophysical Observatory,
                          Cambridge, MA 02138, U.S.A.

             Prepared using the Tamkin Foundation Computer Network

                              MPC at CFA.HARVARD.EDU
            URL https://www.minorplanetcenter.net/    ISSN 1523-6714

                                    2020 JT2                                    


Observations:
     K20J02T* C2020 05 15.39733415 44 43.125-02 17 46.59         21.89wUEK035F51
     K20J02T  C2020 05 15.40933115 44 43.473-02 17 51.64         21.59wUEK035F51
     K20J02T  C2020 05 15.42166715 44 43.835-02 17 57.02         21.35wUEK035F51
     K20J02T  C2020 05 15.43363915 44 44.177-02 18 02.29         21.99wUEK035F51
     K20J02T ,C2020 05 16.51035215 45 29.72 -02 26 11.9          20.6 GVEK035F65
     K20J02T ,C2020 05 16.51215315 45 29.78 -02 26 12.8          20.6 GVEK035F65
     K20J02T ,C2020 05 16.51395315 45 29.83 -02 26 13.7          20.6 GVEK035F65
     K20J02T ,C2020 05 16.51575315 45 29.89 -02 26 14.4          20.5 GVEK035F65
     K20J02T ,C2020 05 16.51755415 45 29.95 -02 26 15.4          20.5 GVEK035F65
     K20J02T ,C2020 05 16.52115615 45 30.06 -02 26 17.0          20.5 GVEK035F65
     K20J02T ,C2020 05 16.52295715 45 30.12 -02 26 17.9          20.4 GVEK035F65
     K20J02T ,C2020 05 16.52475815 45 30.10 -02 26 19.6          20.5 GVEK035F65
     K20J02T KC2020 05 17.94018 15 46 34.61 -02 38 35.0          20.4 VqEK035I93
     K20J02T  C2020 05 17.94245 15 46 34.29 -02 38 40.0          21.3 VVEK035033
     K20J02T  C2020 05 17.94563 15 46 34.36 -02 38 41.5          21.5 VVEK035033
     K20J02T KC2020 05 17.94677 15 46 34.83 -02 38 39.9          20.4 VqEK035I93
     K20J02T  C2020 05 17.94881 15 46 34.47 -02 38 43.2          21.7 VVEK035033
     K20J02T  C2020 05 17.95209 15 46 34.63 -02 38 45.3          22.1 VVEK035033
     K20J02T pC2020 05 18.01543515 46 36.75 -02 39 17.6          22.0 GVEK035L01
     K20J02T pC2020 05 18.01975915 46 36.93 -02 39 19.4          21.9 GVEK035L01
     K20J02T IC2020 05 18.02408315 46 37.07 -02 39 21.5          21.7 GVEK035L01

Observer details:
033 Karl Schwarzschild Observatory, Tautenburg.  Observers S. Melnikov, C. 
   Hoegner, B. Stecklum.  Measurer B. Stecklum.  1.34-m f/3 Schmidt + CCD.
F51 Pan-STARRS 1, Haleakala.  Observers J. Bulger, T. Lowe, A. Schultz, M. 
   Willman.  Measurers K. Chambers, S. Chastel, T. de Boer, L. Denneau, J. 
   Fairlamb, H. Flewelling, M. Huber, C.-C. Lin, E. Magnier, Y. Ramanjooloo, R. 
   Wainscoat, R. Weryk.  1.8-m Ritchey-Chretien + CCD.
F65 Haleakala-Faulkes Telescope North.  Observer J. D. Armstrong.  2.0-m f/10 
   reflector + CCD.
I93 St Pardon de Conques.  Observer F. Losse.  0.40-m f/3.7 reflector + CCD.
L01 Visnjan Observatory, Tican.  Observer K. Korlevic.  1.0-m f/2.9 reflector + 
   CCD.

Orbital elements:
2020 JT2                                                 Earth MOID = 0.1784 AU
Epoch 2020 May 16.0 TT = JDT 2458985.5                  Bell                    
M 348.04608              (2000.0)            P               Q                  
n   0.33480197     Peri.  168.37849     -0.06418928     +0.99442315             
a   2.0540486      Node    97.90025     -0.92222639     -0.02707256             
e   0.4188500      Incl.    4.84623     -0.38128495     -0.10192974             
P   2.94           H   23.18          G   0.15           U   9                  
Residuals in seconds of arc
200515 F51  0.1+  0.0-    200516 F65  0.1-  0.1-    200517 033  0.7-  0.1-
200515 F51  0.0-  0.1+    200516 F65  0.0+  0.2-    200517 I93  0.0+  0.6-
200515 F51  0.0+  0.0+    200516 F65  0.0-  0.1-    200517 033  0.8-  0.0-
200515 F51  0.0-  0.1-    200516 F65  0.0+  0.2-    200517 033  0.1-  0.3-
200516 F65  0.1-  0.2-    200516 F65  1.1-  1.0-    200518 L01  0.0-  0.4-
200516 F65  0.0-  0.2-    200517 I93  0.1+  0.7+    200518 L01  0.4+  0.2+
200516 F65  0.1-  0.2-    200517 033  0.1-  0.3-    200518 L01  0.3+  0.4+
Ephemeris:
2020 JT2                 a,e,i = 2.05, 0.42, 5                   q = 1.1937
Date    TT    R. A. (2000) Decl.     Delta      r    Elong.  Phase     V
2020 04 18    15 24 42.7 -02 13 23   0.3749  1.3505   153.7    19.2    22.7
...
2020 05 03    15 36 09.6 -01 37 08   0.2948  1.2897   160.5    15.1    21.9
...
2020 05 11    15 41 38.0 -01 52 47   0.2619  1.2622   162.5    14.0    21.6
...
2020 05 17    15 45 52.1 -02 29 57   0.2413  1.2441   163.0    13.7    21.4
2020 05 18    15 46 36.6 -02 38 41   0.2383  1.2414   163.0    13.8    21.3
2020 05 19    15 47 21.9 -02 48 12   0.2353  1.2387   163.0    13.8    21.3
...
2020 05 25    15 52 18.9 -04 02 54   0.2193  1.2240   162.7    14.3    21.1
...
2020 06 02    16 00 37.5 -06 32 45   0.2032  1.2088   161.6    15.3    21.0
...
2020 06 17    16 24 03.5 -13 35 47   0.1889  1.1943   159.0    17.7    20.9

M. P. C. Staff               (C) Copyright 2020 MPC           M.P.E.C. 2020-K35




More information about the Iaude mailing list